FW0906 Weather Reports


time (UTC)temp
C
wind
direction
speed
KPH
gust
KPH
rain 1hr
cm
rain 24hr
cm
rain mn
cm
humidity
%
barometer
mb
20240723051543 20 20 0.0 0.0 0.00 0.00 0.00 100 1017.4
20240723050041 20 20 0.0 0.0 0.00 0.00 0.00 100 1017.4
20240723044534 20 20 0.0 0.0 0.00 0.00 0.00 100 1017.2
20240723043030 20 20 0.0 0.0 0.00 0.00 0.00 100 1017.2
20240723041525 21 20 0.0 0.0 0.00 0.00 0.00 100 1017.2
20240723040021 21 20 0.0 0.0 0.00 0.00 0.00 100 1017.2
20240723034516 21 20 0.0 0.0 0.00 0.00 0.00 100 1017.3
20240723033015 21 20 0.0 0.0 0.00 0.00 0.00 100 1017.2
20240723031510 21 20 0.0 0.0 0.00 0.00 0.00 100 1017.2
20240723030008 22 20 0.0 0.0 0.00 0.00 0.00 100 1017.3
20240723024558 22 20 0.0 1.6 0.00 0.00 0.00 100 1017.3
20240723023054 22 21 0.0 6.4 0.00 0.00 0.00 100 1017.2
20240723021551 23 63 0.0 1.6 0.00 0.00 0.00 100 1017.0
20240723020047 23 67 0.0 1.6 0.00 0.00 0.00 100 1016.7
20240723014544 23 73 0.0 1.6 0.00 0.00 0.00 100 1016.7
20240723013037 23 76 0.0 1.6 0.00 0.00 0.00 100 1016.4
20240723011534 23 76 0.0 0.0 0.00 0.00 0.00 100 1016.3
20240723010037 24 76 0.0 1.6 0.00 0.00 0.00 100 1016.1
20240723004525 24 76 0.0 4.8 0.00 0.00 0.00 100 1016.2
20240723003027 25 76 0.0 1.6 0.00 0.00 0.00 100 1016.2
20240723001515 25 79 0.0 4.8 0.00 0.00 0.00 100 1016.1
20240723000011 25 55 0.0 6.4 0.00 0.00 0.00 100 1016.1
20240722234513 25 22 1.6 6.4 0.00 0.00 0.00 100 1016.1
20240722233002 25 330 0.0 3.2 0.00 0.00 0.00 100 1016.1
20240722231557 25 313 3.2 11.3 0.00 0.00 0.00 100 1016.2
20240722230058 25 236 0.0 8.0 0.00 0.00 0.00 100 1016.2
20240722224548 25 275 3.2 9.7 0.00 0.00 0.00 100 1016.2
20240722223046 25 239 0.0 14.5 0.00 0.00 0.00 100 1016.5
20240722221540 25 313 0.0 8.0 0.00 0.00 0.00 100 1016.3
20240722220035 25 314 6.4 17.7 0.00 0.00 0.00 100 1016.5
20240722214546 25 318 14.5 22.5 0.00 0.00 0.00 100 1016.4
20240722213039 27 302 4.8 12.9 0.00 0.00 0.00 100 1016.2
20240722211531 27 277 8.0 19.3 0.00 0.00 0.00 100 1016.1
20240722210018 27 291 8.0 17.7 0.00 0.00 0.00 100 1016.3
20240722204521 27 286 4.8 12.9 0.00 0.00 0.00 100 1016.4
20240722203017 27 310 6.4 12.9 0.00 0.00 0.00 3 1016.4
20240722201505 28 114 3.2 8.0 0.00 0.00 0.00 32 1016.5
20240722200100 28 350 0.0 6.4 0.00 0.00 0.00 34 1016.7
20240722194558 28 309 1.6 9.7 0.00 0.00 0.00 33 1016.9
20240722193057 28 224 0.0 4.8 0.00 0.00 0.00 33 1017.1
20240722191548 28 251 1.6 11.3 0.00 0.00 0.00 28 1017.2
20240722190043 27 257 4.8 9.7 0.00 0.00 0.00 17 1017.5
20240722184544 26 246 0.0 9.7 0.00 0.00 0.00 4 1017.5
20240722183043 27 244 0.0 6.4 0.00 0.00 0.00 11 1017.7
20240722181530 27 229 0.0 1.6 0.00 0.00 0.00 3 1017.7
20240722180025 27 256 1.6 9.7 0.00 0.00 0.00 1 1017.9
20240722174522 27 295 4.8 12.9 0.00 0.00 0.00 100 1018.0
20240722173017 26 300 4.8 9.7 0.00 0.00 0.00 100 1018.1
20240722171513 26 311 3.2 11.3 0.00 0.00 0.00 100 1018.3
20240722170008 26 336 1.6 12.9 0.00 0.00 0.00 100 1018.5
20240722164505 26 290 4.8 11.3 0.00 0.00 0.00 100 1018.4
20240722163100 26 286 3.2 9.7 0.00 0.00 0.00 9 1018.6
20240722161556 26 30 0.0 6.4 0.00 0.00 0.00 100 1018.7
20240722160052 26 68 4.8 12.9 0.00 0.00 0.00 100 1018.8
20240722154546 26 350 3.2 9.7 0.00 0.00 0.00 100 1019.0
20240722153041 26 24 0.0 11.3 0.00 0.00 0.00 100 1019.0
20240722151546 25 328 0.0 6.4 0.00 0.00 0.00 100 1018.9
20240722150034 25 42 0.0 4.8 0.00 0.00 0.00 100 1018.9
20240722144532 25 24 0.0 1.6 0.00 0.00 0.00 100 1019.0
20240722143024 23 73 0.0 1.6 0.00 0.00 0.00 100 1019.0
20240722141523 23 74 0.0 1.6 0.00 0.00 0.00 100 1019.0
20240722140023 22 73 0.0 3.2 0.00 0.00 0.00 100 1019.0
20240722134511 21 71 0.0 1.6 0.00 0.00 0.00 100 1019.0
20240722133007 20 71 0.0 4.8 0.00 0.00 0.00 100 1019.0
20240722131503 20 71 0.0 4.8 0.00 0.00 0.00 100 1019.0
20240722130100 19 76 0.0 8.0 0.00 0.00 0.00 100 1018.9
20240722124559 19 64 0.0 6.4 0.00 0.00 0.00 100 1018.8
20240722123101 18 71 1.6 4.8 0.00 0.00 0.00 100 1018.6
20240722121618 18 71 0.0 3.2 0.00 0.00 0.00 100 1018.5
20240722120041 18 71 3.2 6.4 0.00 0.00 0.00 100 1018.4
20240722114539 18 73 1.6 6.4 0.00 0.00 0.00 100 1018.3
20240722113033 18 73 0.0 4.8 0.00 0.00 0.00 100 1018.4
20240722111529 18 73 0.0 1.6 0.00 0.00 0.00 100 1018.4
20240722110023 18 73 0.0 1.6 0.00 0.00 0.00 100 1018.6
20240722104520 18 73 0.0 0.0 0.00 0.00 0.00 100 1018.5
20240722103015 18 73 0.0 0.0 0.00 0.00 0.00 100 1018.4
20240722101511 18 73 0.0 0.0 0.00 0.00 0.00 100 1018.5
20240722100006 18 73 0.0 0.0 0.00 0.00 0.00 100 1018.6
20240722094502 18 73 0.0 0.0 0.00 0.00 0.00 100 1018.6
20240722093058 18 73 0.0 0.0 0.00 0.00 0.00 100 1018.6
20240722091556 18 73 0.0 0.0 0.00 0.00 0.00 100 1018.6
20240722090048 18 73 0.0 0.0 0.00 0.00 0.00 100 1018.5
20240722084544 18 73 0.0 0.0 0.00 0.00 0.00 100 1018.5
20240722083042 18 73 0.0 0.0 0.00 0.00 0.00 100 1018.7
20240722081536 18 73 0.0 0.0 0.00 0.00 0.00 100 1018.6
20240722080030 19 73 0.0 0.0 0.00 0.00 0.00 100 1018.6
20240722074527 19 73 0.0 0.0 0.00 0.00 0.00 100 1018.7
20240722073023 19 73 0.0 0.0 0.00 0.00 0.00 100 1018.7
20240722071518 19 73 0.0 0.0 0.00 0.00 0.00 100 1018.8
20240722070014 20 73 0.0 1.6 0.00 0.00 0.00 100 1018.9
20240722064512 20 77 0.0 0.0 0.00 0.00 0.00 100 1019.1
20240722063008 20 77 0.0 3.2 0.00 0.00 0.00 100 1019.2
20240722061603 20 77 0.0 0.0 0.00 0.00 0.00 100 1019.4
20240722060058 20 77 0.0 1.6 0.00 0.00 0.00 100 1019.5
20240722054551 20 77 1.6 8.0 0.00 0.00 0.00 100 1019.6
20240722053047 21 76 0.0 6.4 0.00 0.00 0.00 100 1019.7